TimeEDT,TemperatureF,Dew PointF,Humidity,Sea Level PressureIn,VisibilityMPH,Wind Direction,Wind SpeedMPH,Gust SpeedMPH,PrecipitationIn,Events,Conditions,WindDirDegrees,DateUTC
12:52 AM,59.0,48.9,69,30.18,10.0,WNW,3.5,-,N/A,,Clear,300,2013-08-24 04:52:00
1:52 AM,57.9,48.9,72,30.19,10.0,Calm,Calm,-,N/A,,Clear,0,2013-08-24 05:52:00
2:52 AM,53.1,48.0,83,30.20,10.0,NW,5.8,-,N/A,,Clear,320,2013-08-24 06:52:00
3:52 AM,54.0,48.0,80,30.22,10.0,NW,3.5,-,N/A,,Clear,320,2013-08-24 07:52:00
4:52 AM,54.0,48.0,80,30.25,10.0,Calm,Calm,-,N/A,,Clear,0,2013-08-24 08:52:00
5:52 AM,54.0,48.0,80,30.27,10.0,Calm,Calm,-,N/A,,Clear,0,2013-08-24 09:52:00
6:52 AM,54.0,48.9,83,30.29,10.0,Calm,Calm,-,N/A,,Clear,0,2013-08-24 10:52:00
7:52 AM,63.0,48.9,60,30.30,10.0,NW,3.5,-,N/A,,Clear,310,2013-08-24 11:52:00
8:52 AM,66.9,46.0,47,30.32,10.0,North,5.8,-,N/A,,Clear,10,2013-08-24 12:52:00
9:52 AM,69.1,46.9,45,30.33,10.0,NE,6.9,-,N/A,,Clear,50,2013-08-24 13:52:00
10:52 AM,71.1,46.0,41,30.33,10.0,Variable,5.8,-,N/A,,Clear,0,2013-08-24 14:52:00
11:52 AM,73.9,44.1,34,30.32,10.0,ENE,9.2,-,N/A,,Clear,60,2013-08-24 15:52:00
12:52 PM,73.9,43.0,33,30.32,10.0,Calm,Calm,-,N/A,,Clear,0,2013-08-24 16:52:00
1:52 PM,75.9,41.0,29,30.32,10.0,ENE,8.1,-,N/A,,Clear,60,2013-08-24 17:52:00
2:52 PM,77.0,43.0,30,30.31,10.0,Variable,3.5,-,N/A,,Clear,0,2013-08-24 18:52:00
3:52 PM,77.0,39.9,26,30.31,10.0,Variable,3.5,-,N/A,,Clear,0,2013-08-24 19:52:00
4:52 PM,78.1,42.1,28,30.30,10.0,NE,3.5,-,N/A,,Clear,50,2013-08-24 20:52:00
5:52 PM,77.0,43.0,30,30.29,10.0,ENE,5.8,-,N/A,,Clear,60,2013-08-24 21:52:00
6:52 PM,75.9,43.0,31,30.30,10.0,Calm,Calm,-,N/A,,Clear,0,2013-08-24 22:52:00
7:52 PM,63.0,51.1,65,30.31,10.0,Calm,Calm,-,N/A,,Clear,0,2013-08-24 23:52:00
8:52 PM,62.1,53.1,72,30.33,10.0,Calm,Calm,-,N/A,,Clear,0,2013-08-25 00:52:00
9:52 PM,61.0,54.0,78,30.34,10.0,NNW,3.5,-,N/A,,Clear,340,2013-08-25 01:52:00
10:52 PM,57.9,53.1,84,30.35,10.0,Calm,Calm,-,N/A,,Clear,0,2013-08-25 02:52:00
11:52 PM,57.9,52.0,81,30.35,10.0,North,3.5,-,N/A,,Clear,350,2013-08-25 03:52:00